sat.trackr.live / text

‹ back to catalog

GEO-KOMPSAT-2B

NORAD 45246 · 2020-013B

PAYLOAD ACTIVE UNKNOWN

§ Identity

Operator
Country
SKOR
Launch date
2020-02-18
Launch site
FRGUI
Launch vehicle
Mass (kg)
RCS (m²)

Purposes: comms

External: N2YO · Heavens-Above · Gunter

§ Orbital elements

Epoch: 2026-05-25T04:21:06.264000Z

Period
1,436.10 min
Inclination
0.0151°
Eccentricity
0.0000714
Mean motion
1.00271311 rev/d
Perigee alt
35,783.7 km
Apogee alt
35,789.7 km
Semi-major
42,164.9 km
B*
0.0000e+0
RAAN
258.1714°
Arg perigee
72.3737°
Mean anomaly
105.7702°
Rev number
2,304

§ Raw data

GEO-KOMPSAT-2B1 45246U 20013B   26145.18132250 -.00000346  00000+0  00000+0 0  99992 45246   0.0151 258.1714 0000714  72.3737 105.7702  1.00271311 23046

JSON: /api/v1/satellites/45246 · /tle

For live sub-satellite position, see the globe view (requires WebGL).

§ Visibility from observer

Set your observer location to see the next 7 days of passes ≥ 10°. The values pass through the URL so the page stays shareable.

No JS? Fill the form by hand. The geolocation button needs JavaScript.